Regional Weather Roundup
Issued by NWS Kansas City/Pleasant Hill, MO

Home | Current Version | Previous Version | Graphics & Text | Print | Product List | Glossary Off
Versions: 1 2 3 4 5 6 7 8 9 10 11 12 13 14 15 16 17 18 19 20 21 22 23 24 25 26 27 28 29 30 31 32 33 34 35 36 37 38 39 40 41 42 43 44 45 46 47 48 49 50

000
ASUS43 KEAX 021710
RWREAX

WEATHER ROUNDUP FOR EASTERN KANSAS AND NORTHWEST MISSOURI
NATIONAL WEATHER SERVICE KANSAS CITY/PLEASANT HILL MO
1200 PM CDT WED SEP 02 2015

KSZ040-057-103>105-MOZ028-029-037-043-021800-
...KANSAS CITY METROPOLITAN AREA...

CITY           SKY/WX    TMP DP  RH WIND       PRES   REMARKS
K.C. INTL      CLOUDY    74  69  85 SE13      30.05F
K.C. DOWNTOWN  LGT RAIN  78  70  76 E5        30.04F
LEES SUMMIT    PTSUNNY   81  68  64 S9        30.07F
OLATHE - IXD   CLOUDY    77  71  82 S8        30.06F
OLATHE - OJC   LGT RAIN  76  71  85 SE7       30.05F
LAWRENCE       PTSUNNY   77  72  84 SE10      30.03F

$$

MOZ001>008-011>017-020>025-030>033-038>040-044>046-053-054-021800-
...NORTHERN AND CENTRAL MISSOURI...

CITY           SKY/WX    TMP DP  RH WIND       PRES   REMARKS
ST. JOSEPH     CLOUDY    74  70  87 SE12      30.03F
MOSBY          CLOUDY    73  70  88 E6        30.05F
WARRENSBURG    PTSUNNY   82  68  61 SE3       30.08F
WHITEMAN AFB   PTSUNNY   83  69  62 SW6       30.08F
CLINTON        PTSUNNY   84  72  65 CALM      30.10F
SEDALIA        PTSUNNY   83  68  60 SW7       30.11F
WARSAW         NOT AVBL
CHILLICOTHE      N/A     72  70  93 SE5       30.08F
KIRKSVILLE     CLOUDY    75  68  78 SW9       30.07F

$$

MOZ041-047>049-056>058-063>065-088>090-097-021800-
...EASTERN AND SOUTHERN MISSOURI...

CITY           SKY/WX    TMP DP  RH WIND       PRES   REMARKS
ST. LOUIS INTL MOSUNNY   90  67  46 W8        30.10F HX  93
SPIRIT OF STL  MOSUNNY   88  69  53 SW9       30.08F HX  92
COLUMBIA       PTSUNNY   84  70  62 SW8       30.10F
JEFFERSON CITY MOSUNNY   85  68  56 W5        30.09F
ROLLA          SUNNY     86  67  52 VRB5      30.11F
OSAGE BEACH    MOSUNNY   84  68  58 N3        30.12S
SPRINGFIELD    SUNNY     84  69  60 S8        30.12S
BRANSON        PTSUNNY   86  66  51 E5        30.14S
JOPLIN         SUNNY     84  69  60 SW8       30.09S
WEST PLAINS    SUNNY     85  67  54 VRB6      30.15S

$$

IAZ060-094-KSZ022-034>040-054-083-096-NEZ052-066-093-021800-
...KANSAS...SOUTHEAST NEBRASKA AND IOWA...

CITY           SKY/WX    TMP DP  RH WIND       PRES   REMARKS
TOPEKA         PTSUNNY   79  71  76 SE9       30.01F
MANHATTAN      PTSUNNY   86  68  54 S14       29.95F
EMPORIA        PTSUNNY   86  68  54 S16G24    30.01F
CHANUTE        SUNNY     85  70  60 S15       30.06F
WICHITA        MOSUNNY   89  67  47 S17G24    29.99S HX  92
OMAHA          MOSUNNY   83  70  64 S18G28    29.92S
LINCOLN        SUNNY     86  68  54 S15       29.91S
FALLS CITY     MOSUNNY   82  70  66 S14G22    29.97F
LAMONI         MOSUNNY   77  70  79 S16G23    30.01F
DES MOINES     MOSUNNY   82  67  60 SW20G28   29.95F

$$




USA.gov is the U.S. government's official web portal to all federal, state and local government web resources and services.